Regional Weather Roundup
Issued by NWS

Home | Current Version | Previous Version | Text Only | Print | Product List | Glossary On
Versions: 1 2 3 4 5 6 7 8 9 10 11 12 13 14 15 16 17 18 19 20 21 22 23 24 25 26 27 28 29 30 31 32 33 34 35 36 37 38 39 40 41 42 43 44 45 46 47 48 49 50
000
ASUS43 KOAX 181902
RWRNE

WEATHER ROUNDUP FOR NEBRASKA
NATIONAL WEATHER SERVICE OMAHA NE
200 PM CDT THU SEP 18 2014

NOTES: SATELLITE DATA IS BEING USED TO AUGMENT CLOUD COVER ABOVE
       12000 FEET.
       "FAIR" INDICATES FEW OR NO CLOUDS BELOW 12,000 FEET WITH NO
       SIGNIFICANT WEATHER AND/OR OBSTRUCTIONS TO VISIBILITY.

  * THESE STATIONS DO NOT REPORT WEATHER SUCH AS RAIN...SNOW OR FOG.

NEZ001>004-019>022-054>056-182000-
NEBRASKA PANHANDLE

CITY           SKY/WX    TMP DP  RH WIND       PRES   REMARKS
SCOTTSBLUFF    SUNNY     80  52  37 SE8       29.92F
ALLIANCE       SUNNY     81  57  43 S13       29.92F
CHADRON        SUNNY     87  57  35 S9        29.84F
KIMBALL        SUNNY     89  40  18 S12       29.97F
SIDNEY         SUNNY     84  55  36 S14       29.98F
$$

NEZ057>060-069>072-079>082-182000-
SOUTHWEST NEBRASKA

CITY           SKY/WX    TMP DP  RH WIND       PRES   REMARKS
NORTH PLATTE   PTSUNNY   71  61  70 S12G20    29.97F
IMPERIAL       CLOUDY    69  62  78 SE14      29.97F
LEXINGTON      CLOUDY    69  64  84 S13       29.98F
MCCOOK         CLOUDY    65  63  93 SE9       29.98F FOG
OGALLALA       CLOUDY    72  64  78 S9        29.96F
$$

NEZ005>010-023>029-035>040-094-182000-
NORTH CENTRAL NEBRASKA

CITY           SKY/WX    TMP DP  RH WIND       PRES   REMARKS
VALENTINE      CLOUDY    74  62  66 S24G31    29.91S
AINSWORTH      SUNNY     76  54  46 S20G26    29.93F
BROKEN BOW     SUNNY     78  58  49 S22G28    29.96F
O`NEILL        MOSUNNY   73  62  67 SE20      29.97F
ORD            SUNNY     75  58  55 SE18G26   29.96F
THEDFORD       PTSUNNY   76  62  62 S16G23    29.96F
$$

NEZ041-046>049-061>064-073>077-083>087-182000-
SOUTH CENTRAL NEBRASKA

CITY           SKY/WX    TMP DP  RH WIND       PRES   REMARKS
GRAND ISLAND   SUNNY     77  59  53 SE14      29.98F
AURORA         SUNNY     77  57  50 SE16      29.99F
HASTINGS       CLOUDY    73  61  65 SE12      29.98F
HEBRON         CLOUDY    72  63  73 S9        30.00S
HOLDREGE       CLOUDY    67  63  85 SE12      29.98F
KEARNEY *      CLOUDY    70  63  78 SE15      29.99F
YORK           SUNNY     75  59  57 S14       29.99F
$$

NEZ011>018-030>034-042>045-182000-
NORTHEAST NEBRASKA

CITY           SKY/WX    TMP DP  RH WIND       PRES   REMARKS
NORFOLK        SUNNY     73  59  61 S13       30.00F
ALBION         MOSUNNY   72  59  63 S15       29.98F
BLAIR          SUNNY     74  58  57 E12G17    30.02F
COLUMBUS *     SUNNY     75  57  53 SE9       30.01F
FREMONT        SUNNY     75  58  54 SE9       30.01F
TEKAMAH        SUNNY     76  58  53 S12       30.00F
WAYNE          SUNNY     73  59  62 S15       30.01F
$$

NEZ050>053-065>068-078-088>093-182000-
SOUTHEAST NEBRASKA

CITY           SKY/WX    TMP DP  RH WIND       PRES   REMARKS
LINCOLN        MOSUNNY   78  61  55 S10       30.00F
OMAHA EPPLEY   MOSUNNY   74  56  53 SE13      30.01F
BEATRICE       SUNNY     78  61  56 S10       29.99F
FALLS CITY     PTSUNNY   68  59  73 E9        30.01F
NEBRASKA CITY  SUNNY     72  52  49 SE9       30.01F
PLATTSMOUTH    SUNNY     75  54  48 SE10      30.01F
$$

NEZ044-045-051>053-067-182000-
OMAHA AREA

CITY           SKY/WX    TMP DP  RH WIND       PRES   REMARKS
OMAHA EPPLEY   MOSUNNY   74  56  53 SE13      30.01F
BLAIR          SUNNY     74  58  57 E12G17    30.02F
FREMONT        SUNNY     75  58  54 SE9       30.01F
MILLARD        SUNNY     74  59  59 SE9       30.01F
OFFUTT AFB     SUNNY     75  60  58 SE8       30.00F
PLATTSMOUTH    SUNNY     75  54  48 SE10      30.01F
WAHOO          FAIR      76  56  49 S10G17    30.00F
$$


USA.gov is the U.S. government's official web portal to all federal, state and local government web resources and services.